| time (UTC) | temp C | wind direction | speed KPH | gust KPH | rain 1hr cm | rain 24hr cm | rain mn cm | humidity % | barometer mb |
| 20260902092231 | 20 | 0 | 6.4 | 20.9 | 0.00 | 0.00 | 0.00 | 39 | 1008.0 |
| 20260902091731 | 20 | 0 | 6.4 | 20.9 | 0.00 | 0.00 | 0.00 | 37 | 1008.2 |
| 20260902091230 | 20 | 0 | 4.8 | 16.1 | 0.00 | 0.00 | 0.00 | 36 | 1008.3 |
| 20260902090731 | 20 | 0 | 4.8 | 16.1 | 0.00 | 0.00 | 0.00 | 37 | 1008.2 |
| 20260902090230 | 20 | 0 | 4.8 | 14.5 | 0.00 | 0.00 | 0.00 | 37 | 1008.2 |
| 20260902085729 | 20 | 0 | 4.8 | 14.5 | 0.00 | 0.00 | 0.00 | 38 | 1008.3 |
| 20260902084717 | 20 | 0 | 4.8 | 9.7 | 0.00 | 0.00 | 0.00 | 38 | 1008.3 |
| 20260902083706 | 20 | 0 | 3.2 | 9.7 | 0.00 | 0.00 | 0.00 | 38 | 1008.5 |
| 20260902083205 | 20 | 0 | 4.8 | 17.7 | 0.00 | 0.00 | 0.00 | 38 | 1008.4 |
| 20260902082704 | 20 | 0 | 6.4 | 17.7 | 0.00 | 0.00 | 0.00 | 38 | 1008.5 |
| 20260902082205 | 20 | 0 | 8.0 | 17.7 | 0.00 | 0.00 | 0.00 | 37 | 1008.4 |
| 20260902081705 | 20 | 0 | 6.4 | 14.5 | 0.00 | 0.00 | 0.00 | 37 | 1008.4 |
| 20260902081204 | 20 | 0 | 4.8 | 9.7 | 0.00 | 0.00 | 0.00 | 36 | 1008.4 |
| 20260902080704 | 20 | 0 | 3.2 | 6.4 | 0.00 | 0.00 | 0.00 | 36 | 1008.2 |
| 20260902080205 | 20 | 0 | 1.6 | 6.4 | 0.00 | 0.00 | 0.00 | 36 | 1008.2 |
| 20260902075705 | 20 | 0 | 3.2 | 6.4 | 0.00 | 0.00 | 0.00 | 37 | 1008.2 |
| 20260902075206 | 20 | 0 | 1.6 | 4.8 | 0.00 | 0.00 | 0.00 | 40 | 1008.3 |
| 20260902074708 | 20 | 0 | 1.6 | 4.8 | 0.00 | 0.00 | 0.00 | 40 | 1008.1 |
| 20260902074208 | 19 | 0 | 1.6 | 4.8 | 0.00 | 0.00 | 0.00 | 40 | 1008.3 |
| 20260902073205 | 19 | 0 | 0.0 | 3.2 | 0.00 | 0.00 | 0.00 | 44 | 1008.4 |
| 20260902072204 | 20 | 0 | 1.6 | 4.8 | 0.00 | 0.00 | 0.00 | 45 | 1008.5 |
| 20260902071704 | 20 | 0 | 0.0 | 3.2 | 0.00 | 0.00 | 0.00 | 37 | 1008.6 |
| 20260902071203 | 20 | 0 | 1.6 | 6.4 | 0.00 | 0.00 | 0.00 | 38 | 1008.7 |
| 20260902070155 | 20 | 0 | 1.6 | 4.8 | 0.00 | 0.00 | 0.00 | 36 | 1008.7 |
| 20260902065141 | 21 | 0 | 1.6 | 6.4 | 0.00 | 0.00 | 0.00 | 35 | 1008.7 |
| 20260902064635 | 21 | 0 | 3.2 | 6.4 | 0.00 | 0.00 | 0.00 | 34 | 1008.6 |
| 20260902063635 | 21 | 0 | 3.2 | 8.0 | 0.00 | 0.00 | 0.00 | 33 | 1008.6 |
| 20260902061139 | 21 | 0 | 3.2 | 8.0 | 0.00 | 0.00 | 0.00 | 34 | 1008.7 |
| 20260902060633 | 21 | 0 | 3.2 | 8.0 | 0.00 | 0.00 | 0.00 | 34 | 1008.7 |
| 20260902055631 | 22 | 0 | 3.2 | 8.0 | 0.00 | 0.00 | 0.00 | 31 | 1008.5 |
| 20260902055131 | 22 | 0 | 4.8 | 8.0 | 0.00 | 0.00 | 0.00 | 32 | 1008.5 |
| 20260902054134 | 22 | 0 | 3.2 | 8.0 | 0.00 | 0.00 | 0.00 | 34 | 1008.5 |
| 20260902053630 | 22 | 0 | 3.2 | 6.4 | 0.00 | 0.00 | 0.00 | 34 | 1008.6 |
| 20260902052631 | 22 | 0 | 6.4 | 14.5 | 0.00 | 0.00 | 0.00 | 32 | 1009.1 |
| 20260902052133 | 22 | 0 | 4.8 | 14.5 | 0.00 | 0.00 | 0.00 | 34 | 1009.2 |
| 20260902051635 | 22 | 0 | 4.8 | 12.9 | 0.00 | 0.00 | 0.00 | 33 | 1009.4 |
| 20260902051131 | 22 | 0 | 4.8 | 12.9 | 0.00 | 0.00 | 0.00 | 32 | 1009.5 |
| 20260902050631 | 22 | 0 | 4.8 | 16.1 | 0.00 | 0.00 | 0.00 | 32 | 1009.5 |
| 20260902050133 | 22 | 0 | 4.8 | 16.1 | 0.00 | 0.00 | 0.00 | 32 | 1009.5 |
| 20260902045631 | 22 | 0 | 4.8 | 9.7 | 0.00 | 0.00 | 0.00 | 33 | 1009.5 |
| 20260902045131 | 22 | 0 | 4.8 | 14.5 | 0.00 | 0.00 | 0.00 | 33 | 1009.6 |
| 20260902044631 | 22 | 0 | 4.8 | 16.1 | 0.00 | 0.00 | 0.00 | 33 | 1009.6 |
| 20260902044131 | 22 | 0 | 4.8 | 16.1 | 0.00 | 0.00 | 0.00 | 32 | 1009.6 |
| 20260902043631 | 22 | 0 | 4.8 | 17.7 | 0.00 | 0.00 | 0.00 | 32 | 1009.6 |
| 20260902043133 | 22 | 0 | 6.4 | 17.7 | 0.00 | 0.00 | 0.00 | 33 | 1009.6 |
| 20260902041633 | 22 | 0 | 3.2 | 8.0 | 0.00 | 0.00 | 0.00 | 33 | 1009.6 |
| 20260902041137 | 22 | 0 | 3.2 | 8.0 | 0.00 | 0.00 | 0.00 | 31 | 1009.6 |
| 20260902040632 | 22 | 0 | 3.2 | 12.9 | 0.00 | 0.00 | 0.00 | 30 | 1009.6 |
| 20260902040132 | 22 | 0 | 1.6 | 12.9 | 0.00 | 0.00 | 0.00 | 29 | 1009.6 |
| 20260902035632 | 21 | 0 | 0.0 | 4.8 | 0.00 | 0.00 | 0.00 | 30 | 1009.5 |
| 20260902035134 | 21 | 0 | 0.0 | 4.8 | 0.00 | 0.00 | 0.00 | 31 | 1009.4 |
| 20260902034631 | 21 | 0 | 0.0 | 3.2 | 0.00 | 0.00 | 0.00 | 37 | 1009.4 |
| 20260902034130 | 21 | 0 | 0.0 | 3.2 | 0.00 | 0.00 | 0.00 | 33 | 1009.4 |
| 20260902033631 | 21 | 0 | 0.0 | 4.8 | 0.00 | 0.00 | 0.00 | 33 | 1009.5 |
| 20260902033130 | 21 | 0 | 1.6 | 6.4 | 0.00 | 0.00 | 0.00 | 35 | 1009.6 |
| 20260902032631 | 21 | 0 | 1.6 | 6.4 | 0.00 | 0.00 | 0.00 | 36 | 1009.5 |
| 20260902032132 | 21 | 0 | 1.6 | 4.8 | 0.00 | 0.00 | 0.00 | 38 | 1009.4 |
| 20260902031636 | 21 | 0 | 3.2 | 6.4 | 0.00 | 0.00 | 0.00 | 36 | 1009.5 |
| 20260902030133 | 22 | 0 | 1.6 | 6.4 | 0.00 | 0.00 | 0.00 | 35 | 1009.1 |
| 20260902025632 | 22 | 0 | 1.6 | 6.4 | 0.00 | 0.00 | 0.00 | 37 | 1009.0 |
| 20260902025132 | 23 | 0 | 1.6 | 6.4 | 0.00 | 0.00 | 0.00 | 30 | 1009.0 |
| 20260902024131 | 23 | 0 | 3.2 | 6.4 | 0.00 | 0.00 | 0.00 | 29 | 1008.5 |
| 20260902023131 | 23 | 0 | 4.8 | 19.3 | 0.00 | 0.00 | 0.00 | 30 | 1008.4 |
| 20260902022630 | 23 | 0 | 6.4 | 19.3 | 0.00 | 0.00 | 0.00 | 29 | 1008.3 |
| 20260902022134 | 22 | 0 | 3.2 | 8.0 | 0.00 | 0.00 | 0.00 | 33 | 1008.2 |
| 20260902021635 | 22 | 0 | 3.2 | 12.9 | 0.00 | 0.00 | 0.00 | 34 | 1007.9 |
| 20260902021131 | 22 | 0 | 4.8 | 12.9 | 0.00 | 0.00 | 0.00 | 38 | 1007.8 |
| 20260902020130 | 22 | 0 | 1.6 | 6.4 | 0.00 | 0.00 | 0.00 | 44 | 1007.4 |
| 20260902015631 | 22 | 219 | 0.0 | 4.8 | 0.00 | 0.00 | 0.00 | 42 | 1007.2 |
| 20260902015130 | 22 | 215 | 0.0 | 1.6 | 0.00 | 0.00 | 0.00 | 40 | 1006.9 |
| 20260902014631 | 23 | 215 | 1.6 | 6.4 | 0.00 | 0.00 | 0.00 | 37 | 1006.8 |
| 20260902013133 | 23 | 205 | 3.2 | 9.7 | 0.00 | 0.00 | 0.00 | 31 | 1006.8 |
| 20260902012130 | 23 | 212 | 3.2 | 9.7 | 0.00 | 0.00 | 0.00 | 33 | 1006.7 |
| 20260902011632 | 23 | 213 | 1.6 | 9.7 | 0.00 | 0.00 | 0.00 | 34 | 1006.6 |
| 20260902010631 | 23 | 192 | 3.2 | 6.4 | 0.00 | 0.00 | 0.00 | 34 | 1006.6 |
| 20260902010131 | 23 | 246 | 4.8 | 9.7 | 0.00 | 0.00 | 0.00 | 34 | 1006.5 |
| 20260902005631 | 23 | 242 | 4.8 | 9.7 | 0.00 | 0.00 | 0.00 | 35 | 1006.5 |
| 20260902004631 | 24 | 0 | 0.0 | 4.8 | 0.00 | 0.00 | 0.00 | 35 | 1006.5 |
| 20260902004132 | 25 | 0 | 1.6 | 4.8 | 0.00 | 0.00 | 0.00 | 34 | 1006.5 |
| 20260902003631 | 25 | 0 | 4.8 | 8.0 | 0.00 | 0.00 | 0.00 | 33 | 1006.5 |
| 20260902003133 | 25 | 0 | 6.4 | 12.9 | 0.00 | 0.00 | 0.00 | 32 | 1006.5 |
| 20260902002634 | 26 | 0 | 3.2 | 12.9 | 0.00 | 0.00 | 0.00 | 29 | 1006.3 |
| 20260902001633 | 26 | 332 | 0.0 | 0.0 | 0.00 | 0.00 | 0.00 | 22 | 1006.3 |
| 20260902001131 | 26 | 332 | 0.0 | 0.0 | 0.00 | 0.00 | 0.00 | 22 | 1006.5 |
| 20260902000632 | 27 | 332 | 0.0 | 0.0 | 0.00 | 0.00 | 0.00 | 28 | 1006.5 |
| 20260902000136 | 27 | 332 | 0.0 | 0.0 | 0.00 | 0.00 | 0.00 | 24 | 1006.5 |
| 20260901235633 | 27 | 332 | 0.0 | 0.0 | 0.00 | 0.00 | 0.00 | 19 | 1006.5 |
| 20260901235131 | 26 | 332 | 0.0 | 1.6 | 0.00 | 0.00 | 0.00 | 21 | 1006.6 |
| 20260901234631 | 26 | 332 | 0.0 | 3.2 | 0.00 | 0.00 | 0.00 | 21 | 1006.6 |
| 20260901234130 | 26 | 331 | 1.6 | 3.2 | 0.00 | 0.00 | 0.00 | 22 | 1006.7 |
| 20260901233129 | 27 | 332 | 3.2 | 6.4 | 0.00 | 0.00 | 0.00 | 19 | 1006.6 |
| 20260901232630 | 27 | 340 | 3.2 | 8.0 | 0.00 | 0.00 | 0.00 | 19 | 1006.7 |
| 20260901232128 | 27 | 329 | 3.2 | 8.0 | 0.00 | 0.00 | 0.00 | 19 | 1006.7 |
| 20260901231630 | 27 | 329 | 1.6 | 6.4 | 0.00 | 0.00 | 0.00 | 21 | 1006.7 |
| 20260901231129 | 27 | 11 | 1.6 | 6.4 | 0.00 | 0.00 | 0.00 | 18 | 1006.8 |
| 20260901230630 | 28 | 355 | 1.6 | 6.4 | 0.00 | 0.00 | 0.00 | 21 | 1006.9 |
| 20260901230130 | 28 | 27 | 1.6 | 6.4 | 0.00 | 0.00 | 0.00 | 17 | 1006.9 |
| 20260901225631 | 27 | 351 | 3.2 | 8.0 | 0.00 | 0.00 | 0.00 | 19 | 1006.9 |
| 20260901225133 | 27 | 340 | 3.2 | 8.0 | 0.00 | 0.00 | 0.00 | 19 | 1007.0 |
| 20260901224633 | 27 | 346 | 3.2 | 9.7 | 0.00 | 0.00 | 0.00 | 19 | 1007.1 |
| 20260901224131 | 27 | 355 | 3.2 | 12.9 | 0.00 | 0.00 | 0.00 | 18 | 1007.1 |
| 20260901223632 | 27 | 336 | 3.2 | 12.9 | 0.00 | 0.00 | 0.00 | 19 | 1007.3 |
| 20260901223130 | 27 | 10 | 3.2 | 9.7 | 0.00 | 0.00 | 0.00 | 21 | 1007.3 |
| 20260901222130 | 27 | 331 | 1.6 | 8.0 | 0.00 | 0.00 | 0.00 | 19 | 1007.4 |
| 20260901221626 | 28 | 341 | 1.6 | 8.0 | 0.00 | 0.00 | 0.00 | 18 | 1007.5 |
| 20260901221121 | 28 | 331 | 1.6 | 6.4 | 0.00 | 0.00 | 0.00 | 18 | 1007.5 |
| 20260901220616 | 28 | 23 | 3.2 | 6.4 | 0.00 | 0.00 | 0.00 | 21 | 1007.7 |
| 20260901220114 | 27 | 14 | 3.2 | 8.0 | 0.00 | 0.00 | 0.00 | 19 | 1007.5 |
| 20260901215115 | 27 | 355 | 3.2 | 6.4 | 0.00 | 0.00 | 0.00 | 19 | 1007.7 |
| 20260901214612 | 28 | 0 | 3.2 | 6.4 | 0.00 | 0.00 | 0.00 | 20 | 1007.7 |
| 20260901214113 | 28 | 336 | 1.6 | 4.8 | 0.00 | 0.00 | 0.00 | 20 | 1007.7 |
| 20260901213613 | 28 | 14 | 1.6 | 4.8 | 0.00 | 0.00 | 0.00 | 21 | 1007.8 |
| 20260901212612 | 28 | 355 | 1.6 | 3.2 | 0.00 | 0.00 | 0.00 | 22 | 1008.0 |
| 20260901212114 | 27 | 338 | 1.6 | 4.8 | 0.00 | 0.00 | 0.00 | 20 | 1008.1 |
| 20260901211614 | 27 | 343 | 1.6 | 4.8 | 0.00 | 0.00 | 0.00 | 20 | 1008.3 |
| 20260901211113 | 27 | 19 | 1.6 | 4.8 | 0.00 | 0.00 | 0.00 | 23 | 1008.4 |
| 20260901210611 | 27 | 348 | 1.6 | 4.8 | 0.00 | 0.00 | 0.00 | 21 | 1008.4 |
| 20260901210111 | 28 | 350 | 1.6 | 4.8 | 0.00 | 0.00 | 0.00 | 22 | 1008.5 |
| 20260901204612 | 27 | 68 | 1.6 | 4.8 | 0.00 | 0.00 | 0.00 | 24 | 1008.7 |
| 20260901204111 | 27 | 28 | 1.6 | 3.2 | 0.00 | 0.00 | 0.00 | 23 | 1008.9 |
| 20260901203612 | 26 | 0 | 1.6 | 3.2 | 0.00 | 0.00 | 0.00 | 23 | 1009.0 |
| 20260901203112 | 26 | 13 | 1.6 | 3.2 | 0.00 | 0.00 | 0.00 | 26 | 1009.1 |
| 20260901202607 | 26 | 0 | 1.6 | 3.2 | 0.00 | 0.00 | 0.00 | 24 | 1009.1 |
| 20260901201608 | 26 | 82 | 0.0 | 3.2 | 0.00 | 0.00 | 0.00 | 25 | 1009.3 |
| 20260901201107 | 26 | 82 | 0.0 | 4.8 | 0.00 | 0.00 | 0.00 | 27 | 1009.3 |
| 20260901200607 | 25 | 90 | 1.6 | 4.8 | 0.00 | 0.00 | 0.00 | 25 | 1009.3 |
| 20260901195607 | 25 | 35 | 1.6 | 3.2 | 0.00 | 0.00 | 0.00 | 29 | 1009.4 |
| 20260901195109 | 25 | 5 | 1.6 | 4.8 | 0.00 | 0.00 | 0.00 | 25 | 1009.4 |
| 20260901194103 | 25 | 0 | 0.0 | 3.2 | 0.00 | 0.00 | 0.00 | 29 | 1009.5 |
| 20260901193604 | 24 | 355 | 0.0 | 3.2 | 0.00 | 0.00 | 0.00 | 28 | 1009.6 |
| 20260901193103 | 24 | 350 | 1.6 | 3.2 | 0.00 | 0.00 | 0.00 | 28 | 1009.8 |
| 20260901192603 | 24 | 74 | 0.0 | 3.2 | 0.00 | 0.00 | 0.00 | 31 | 1010.0 |
| 20260901192102 | 23 | 76 | 1.6 | 3.2 | 0.00 | 0.00 | 0.00 | 29 | 1010.1 |
| 20260901191604 | 23 | 67 | 1.6 | 3.2 | 0.00 | 0.00 | 0.00 | 30 | 1010.1 |
| 20260901191103 | 23 | 62 | 1.6 | 3.2 | 0.00 | 0.00 | 0.00 | 31 | 1010.2 |
| 20260901190602 | 22 | 61 | 1.6 | 3.2 | 0.00 | 0.00 | 0.00 | 30 | 1010.3 |
| 20260901185602 | 22 | 87 | 1.6 | 4.8 | 0.00 | 0.00 | 0.00 | 32 | 1010.5 |
| 20260901185103 | 22 | 86 | 1.6 | 4.8 | 0.00 | 0.00 | 0.00 | 33 | 1010.6 |
| 20260901184603 | 22 | 56 | 1.6 | 3.2 | 0.00 | 0.00 | 0.00 | 31 | 1010.7 |
| 20260901184103 | 22 | 355 | 0.0 | 1.6 | 0.00 | 0.00 | 0.00 | 31 | 1010.9 |
| 20260901183605 | 21 | 12 | 1.6 | 3.2 | 0.00 | 0.00 | 0.00 | 29 | 1010.9 |
| 20260901183102 | 21 | 17 | 1.6 | 3.2 | 0.00 | 0.00 | 0.00 | 31 | 1011.0 |
| 20260901182606 | 21 | 17 | 1.6 | 3.2 | 0.00 | 0.00 | 0.00 | 28 | 1011.2 |
| 20260901182109 | 21 | 41 | 1.6 | 3.2 | 0.00 | 0.00 | 0.00 | 29 | 1011.3 |
| 20260901181606 | 21 | 62 | 1.6 | 3.2 | 0.00 | 0.00 | 0.00 | 32 | 1011.3 |
| 20260901181104 | 20 | 21 | 0.0 | 3.2 | 0.00 | 0.00 | 0.00 | 32 | 1011.4 |
| 20260901180602 | 20 | 11 | 0.0 | 3.2 | 0.00 | 0.00 | 0.00 | 34 | 1011.4 |
| 20260901180105 | 20 | 15 | 0.0 | 3.2 | 0.00 | 0.00 | 0.00 | 35 | 1011.6 |
| 20260901175607 | 19 | 0 | 0.0 | 3.2 | 0.00 | 0.00 | 0.00 | 35 | 1011.6 |
| 20260901175106 | 19 | 0 | 1.6 | 4.8 | 0.00 | 0.00 | 0.00 | 36 | 1011.7 |
| 20260901174606 | 19 | 0 | 1.6 | 4.8 | 0.00 | 0.00 | 0.00 | 40 | 1011.9 |
| 20260901174106 | 18 | 0 | 1.6 | 4.8 | 0.00 | 0.00 | 0.00 | 39 | 1011.9 |
| 20260901173606 | 18 | 0 | 1.6 | 3.2 | 0.00 | 0.00 | 0.00 | 39 | 1012.0 |
| 20260901173103 | 18 | 0 | 1.6 | 4.8 | 0.00 | 0.00 | 0.00 | 41 | 1012.0 |
| 20260901172604 | 18 | 0 | 3.2 | 4.8 | 0.00 | 0.00 | 0.00 | 39 | 1012.1 |
| 20260901172102 | 17 | 0 | 3.2 | 4.8 | 0.00 | 0.00 | 0.00 | 38 | 1012.0 |
| 20260901171602 | 17 | 0 | 3.2 | 4.8 | 0.00 | 0.00 | 0.00 | 41 | 1012.2 |
| 20260901171103 | 17 | 0 | 3.2 | 4.8 | 0.00 | 0.00 | 0.00 | 44 | 1012.2 |
| 20260901170602 | 17 | 0 | 3.2 | 4.8 | 0.00 | 0.00 | 0.00 | 44 | 1012.2 |
| 20260901165603 | 16 | 0 | 1.6 | 3.2 | 0.00 | 0.00 | 0.00 | 47 | 1012.2 |
| 20260901165058 | 16 | 0 | 1.6 | 4.8 | 0.00 | 0.00 | 0.00 | 47 | 1012.4 |
| 20260901164558 | 16 | 0 | 1.6 | 4.8 | 0.00 | 0.00 | 0.00 | 47 | 1012.2 |
| 20260901164058 | 16 | 0 | 1.6 | 4.8 | 0.00 | 0.00 | 0.00 | 49 | 1012.2 |
| 20260901163556 | 16 | 0 | 1.6 | 4.8 | 0.00 | 0.00 | 0.00 | 48 | 1012.2 |
| 20260901163055 | 16 | 0 | 1.6 | 4.8 | 0.00 | 0.00 | 0.00 | 49 | 1012.0 |
| 20260901162056 | 15 | 0 | 1.6 | 4.8 | 0.00 | 0.00 | 0.00 | 53 | 1012.2 |
| 20260901161558 | 15 | 0 | 1.6 | 3.2 | 0.00 | 0.00 | 0.00 | 53 | 1012.4 |
| 20260901161057 | 14 | 0 | 1.6 | 4.8 | 0.00 | 0.00 | 0.00 | 53 | 1012.4 |
| 20260901160558 | 14 | 0 | 3.2 | 4.8 | 0.00 | 0.00 | 0.00 | 53 | 1012.5 |
| 20260901160055 | 14 | 0 | 3.2 | 4.8 | 0.00 | 0.00 | 0.00 | 53 | 1012.4 |
| 20260901155555 | 14 | 0 | 1.6 | 4.8 | 0.00 | 0.00 | 0.00 | 56 | 1012.4 |
| 20260901155056 | 13 | 0 | 3.2 | 4.8 | 0.00 | 0.00 | 0.00 | 55 | 1012.5 |
| 20260901154548 | 13 | 0 | 3.2 | 6.4 | 0.00 | 0.00 | 0.00 | 55 | 1012.5 |
| 20260901154046 | 13 | 0 | 3.2 | 6.4 | 0.00 | 0.00 | 0.00 | 55 | 1012.5 |
| 20260901153547 | 13 | 0 | 3.2 | 6.4 | 0.00 | 0.00 | 0.00 | 56 | 1012.5 |
| 20260901152544 | 13 | 0 | 4.8 | 6.4 | 0.00 | 0.00 | 0.00 | 57 | 1012.4 |
| 20260901152046 | 13 | 0 | 3.2 | 6.4 | 0.00 | 0.00 | 0.00 | 58 | 1012.5 |
| 20260901151544 | 13 | 0 | 3.2 | 6.4 | 0.00 | 0.00 | 0.00 | 57 | 1012.6 |
| 20260901151040 | 13 | 0 | 3.2 | 6.4 | 0.00 | 0.00 | 0.00 | 57 | 1012.5 |
| 20260901150545 | 13 | 0 | 1.6 | 4.8 | 0.00 | 0.00 | 0.00 | 55 | 1012.6 |
| 20260901150040 | 13 | 0 | 1.6 | 4.8 | 0.00 | 0.00 | 0.00 | 55 | 1012.5 |
| 20260901145537 | 12 | 0 | 3.2 | 4.8 | 0.00 | 0.00 | 0.00 | 56 | 1012.5 |
| 20260901144540 | 12 | 0 | 1.6 | 6.4 | 0.00 | 0.00 | 0.00 | 59 | 1012.4 |
| 20260901144040 | 12 | 0 | 1.6 | 4.8 | 0.00 | 0.00 | 0.00 | 65 | 1012.2 |
| 20260901143538 | 12 | 0 | 1.6 | 4.8 | 0.00 | 0.00 | 0.00 | 66 | 1012.1 |
| 20260901143037 | 11 | 0 | 1.6 | 4.8 | 0.00 | 0.00 | 0.00 | 64 | 1012.2 |
| 20260901142535 | 11 | 0 | 0.0 | 0.0 | 0.00 | 0.00 | 0.00 | 64 | 1012.1 |
| 20260901142031 | 10 | 0 | 0.0 | 0.0 | 0.00 | 0.00 | 0.00 | 71 | 1012.1 |
| 20260901141532 | 9 | 310 | 0.0 | 0.0 | 0.00 | 0.00 | 0.00 | 73 | 1012.2 |
| 20260901140533 | 8 | 309 | 0.0 | 0.0 | 0.00 | 0.00 | 0.00 | 70 | 1012.4 |
| 20260901135034 | 8 | 309 | 0.0 | 0.0 | 0.00 | 0.00 | 0.00 | 68 | 1012.2 |
| 20260901134532 | 8 | 309 | 0.0 | 0.0 | 0.00 | 0.00 | 0.00 | 69 | 1012.0 |
| 20260901134032 | 8 | 309 | 0.0 | 0.0 | 0.00 | 0.00 | 0.00 | 68 | 1011.9 |
| 20260901133030 | 8 | 309 | 0.0 | 0.0 | 0.00 | 0.00 | 0.00 | 69 | 1011.8 |
| 20260901132531 | 8 | 309 | 0.0 | 0.0 | 0.00 | 0.00 | 0.00 | 71 | 1011.8 |
| 20260901132032 | 8 | 309 | 0.0 | 0.0 | 0.00 | 0.00 | 0.00 | 72 | 1011.9 |
| 20260901131531 | 8 | 309 | 0.0 | 0.0 | 0.00 | 0.00 | 0.00 | 72 | 1011.8 |
| 20260901131032 | 8 | 309 | 0.0 | 0.0 | 0.00 | 0.00 | 0.00 | 70 | 1011.8 |
| 20260901130532 | 8 | 309 | 0.0 | 0.0 | 0.00 | 0.00 | 0.00 | 71 | 1011.7 |
| 20260901125531 | 8 | 309 | 0.0 | 0.0 | 0.00 | 0.00 | 0.00 | 70 | 1011.5 |
| 20260901125030 | 8 | 309 | 0.0 | 0.0 | 0.00 | 0.00 | 0.00 | 70 | 1011.6 |
| 20260901124532 | 8 | 309 | 0.0 | 0.0 | 0.00 | 0.00 | 0.00 | 71 | 1011.6 |
| 20260901124029 | 8 | 309 | 0.0 | 0.0 | 0.00 | 0.00 | 0.00 | 70 | 1011.6 |
| 20260901123525 | 8 | 309 | 0.0 | 0.0 | 0.00 | 0.00 | 0.00 | 70 | 1011.6 |
| 20260901123018 | 8 | 309 | 0.0 | 0.0 | 0.00 | 0.00 | 0.00 | 69 | 1011.5 |
| 20260901122518 | 8 | 309 | 0.0 | 0.0 | 0.00 | 0.00 | 0.00 | 69 | 1011.5 |
| 20260901122016 | 8 | 309 | 0.0 | 0.0 | 0.00 | 0.00 | 0.00 | 68 | 1011.6 |
| 20260901121515 | 8 | 309 | 0.0 | 0.0 | 0.00 | 0.00 | 0.00 | 68 | 1011.6 |
| 20260901121017 | 8 | 309 | 0.0 | 0.0 | 0.00 | 0.00 | 0.00 | 69 | 1011.6 |
| 20260901120515 | 8 | 309 | 0.0 | 0.0 | 0.00 | 0.00 | 0.00 | 68 | 1011.6 |
| 20260901120012 | 8 | 309 | 0.0 | 0.0 | 0.00 | 0.00 | 0.00 | 68 | 1011.7 |
| 20260901115512 | 8 | 309 | 0.0 | 0.0 | 0.00 | 0.00 | 0.00 | 67 | 1011.7 |
| 20260901115012 | 8 | 309 | 0.0 | 0.0 | 0.00 | 0.00 | 0.00 | 67 | 1011.6 |
| 20260901114510 | 8 | 309 | 0.0 | 0.0 | 0.00 | 0.00 | 0.00 | 67 | 1011.6 |
| 20260901114007 | 8 | 309 | 0.0 | 0.0 | 0.00 | 0.00 | 0.00 | 67 | 1011.6 |
| 20260901113509 | 8 | 309 | 0.0 | 0.0 | 0.00 | 0.00 | 0.00 | 67 | 1011.6 |
| 20260901113011 | 8 | 310 | 0.0 | 0.0 | 0.00 | 0.00 | 0.00 | 68 | 1011.6 |
| 20260901111504 | 8 | 310 | 0.0 | 0.0 | 0.00 | 0.00 | 0.00 | 67 | 1011.7 |
| 20260901111003 | 9 | 309 | 0.0 | 0.0 | 0.00 | 0.00 | 0.00 | 67 | 1011.6 |
| 20260901110502 | 9 | 309 | 0.0 | 0.0 | 0.00 | 0.00 | 0.00 | 66 | 1011.6 |
| 20260901110003 | 9 | 309 | 0.0 | 0.0 | 0.00 | 0.00 | 0.00 | 67 | 1011.5 |
| 20260901105504 | 9 | 309 | 0.0 | 0.0 | 0.00 | 0.00 | 0.00 | 67 | 1011.7 |
| 20260901105002 | 9 | 309 | 0.0 | 0.0 | 0.00 | 0.00 | 0.00 | 67 | 1011.6 |
| 20260901104504 | 9 | 310 | 0.0 | 0.0 | 0.00 | 0.00 | 0.00 | 67 | 1011.6 |
| 20260901103004 | 9 | 309 | 0.0 | 0.0 | 0.00 | 0.00 | 0.00 | 67 | 1011.5 |
| 20260901102005 | 9 | 309 | 1.6 | 4.8 | 0.00 | 0.00 | 0.00 | 68 | 1011.6 |
| 20260901101504 | 9 | 309 | 1.6 | 4.8 | 0.00 | 0.00 | 0.00 | 69 | 1011.6 |
| 20260901101003 | 9 | 292 | 0.0 | 0.0 | 0.00 | 0.00 | 0.00 | 70 | 1011.6 |
| 20260901100503 | 9 | 292 | 0.0 | 0.0 | 0.00 | 0.00 | 0.00 | 70 | 1011.7 |
| 20260901100004 | 9 | 292 | 0.0 | 0.0 | 0.00 | 0.00 | 0.00 | 69 | 1011.6 |
| 20260901095503 | 9 | 292 | 0.0 | 0.0 | 0.00 | 0.00 | 0.00 | 70 | 1011.7 |
| 20260901095002 | 9 | 293 | 0.0 | 0.0 | 0.00 | 0.00 | 0.00 | 69 | 1011.8 |
| 20260901094503 | 9 | 292 | 0.0 | 0.0 | 0.00 | 0.00 | 0.00 | 68 | 1011.8 |
| 20260901094002 | 10 | 293 | 0.0 | 0.0 | 0.00 | 0.00 | 0.00 | 70 | 1011.8 |
| 20260901093503 | 10 | 292 | 0.0 | 0.0 | 0.00 | 0.00 | 0.00 | 70 | 1011.8 |